Presure
171 169 163 179 179 173 162 169 175 170 172 142 166 134 158 163 142 169 184 173 161 140 178 193 198 179 146 141 172 215 151 176 163 145 180 175 167 214 188 176 203 193 208
174 153 178 157 168 167 164 172 164 169 163 169 169 166 153 168 166 155 189 182 176 143 169 189 189 151 189 177 161 187 186 187 211 207 182 217 199 218 204 202 187 195 196
176 170 173 179 180 181 175 168 176 176 170 167 170 157 178 186 187 177 169 194 145 205 174 168 156 181 155 206 180 187 176 196 171 188 180 215 177 203 183 211 202 195 194
168 158 164 175 172 172 170 177 171 178 190 165 174 194 177 187 194 207 169 189 186 142 202 173 176 194 183 161 212 155 151 210 243 172 203 188 209 179 196 203 200 202 192
186 189 208 192 193 183 178 186 188 180 186 181 171 146 166 210 162 161 194 184 156 179 173 213 187 202 192 225 206 213 204 213 197 218 211 188 220 200 156 208 187 199 195
232 236 213 212 192 187 156 188 186 185 168 196 169 203 200 197 199 187 179 154 177 181 158 206 181 196 187 210 189 180 201 204 195 220 229 208 223 218 196 189 182 151 198
244 240 231 204 252 212 215 226 194 193 192 187 163 179 182 185 180 177 183 168 196 201 196 198 184 201 223 213 180 208 184 201 206 221 196 216 208 214 194 193 187 203 205
248 238 235 230 240 234 200 239 228 226 223 216 181 187 178 180 212 180 219 201 197 200 198 184 215 217 202 201 199 212 203 196 191 218 195 206 204 207 196 189 197 193 190
280 253 235 230 233 228 222 231 224 218 213 212 220 211 214 213 213 187 211 211 187 197 186 200 180 221 205 216 218 195 203 213 216 211 222 220 215 195 203 203 207 204 208
298 299 271 240 223 221 217 218 227 223 214 222 210 212 220 212 206 197 195 198 200 214 225 217 210 215 207 218 205 198 211 205 202 204 223 210 210 208 201 214 205 203 215
270 283 299 291 277 250 227 219 221 230 222 217 218 215 220 223 213 212 204 216 227 207 207 199 198 200 210 211 189 204 211 202 205 219 221 205 222 206 214 207 210 208 218
298 278 272 280 291 260 244 232 220 216 209 207 213 215 216 214 211 211 214 212 212 210 195 197 198 209 195 216 207 217 212 214 214 215 212 210 215 213 215 215 210 202 196
282 286 298 282 272 262 261 265 257 241 225 223 221 220 207 208 210 210 215 205 213 212 209 207 205 207 211 213 215 209 211 207 210 205 209 209 209 208 202 205 214 204 202
284 281 284 285 294 272 270 255 240 235 234 233 222 218 214 214 214 214 209 211 213 209 211 205 210 212 207 208 210 214 214 214 213 209 216 211 204 207 214 203 204 203 199
234 282 277 278 281 282 279 250 250 251 247 236 231 223 217 207 206 212 213 215 211 208 209 211 212 210 212 208 212 210 214 219 215 219 233 236 238 230 215 206 207 207 201
225 254 278 273 272 272 261 287 254 241 239 239 237 235 229 228 218 216 213 206 206 214 212 213 210 218 216 214 209 209 233 234 207 231 229 225 225 225 221 225 227 233 232
223 231 283 273 267 263 264 251 256 279 283 252 239 233 229 226 223 222 220 219 227 229 217 215 214 216 214 209 213 228 236 226 227 221 219 225 228 229 232 230 226 222 222
220 224 252 275 269 260 259 250 241 233 245 252 263 267 249 243 241 246 230 228 225 219 216 215 213 223 223 233 235 214 215 222 215 217 230 226 222 220 218 218 224 226 227
219 220 223 270 264 255 254 254 240 256 240 226 219 235 236 236 235 232 224 221 218 238 231 233 226 233 233 222 218 217 212 220 205 212 218 223 222 222 227 234 230 229 230
218 219 222 222 266 260 253 250 243 233 243 233 239 235 233 225 229 232 233 227 223 217 222 218 215 217 217 215 209 212 210 211 216 208 222 215 216 215 213 215 216 218 216
219 221 220 220 264 253 253 246 244 234 228 227 236 230 227 229 227 223 222 219 214 214 211 215 213 212 214 212 210 210 208 214 214 217 213 212 212 212 213 213 213 213 211
224 222 216 216 262 255 251 246 238 235 229 226 224 225 221 217 217 219 218 222 225 223 221 217 213 214 213 209 208 208 210 209 211 213 215 212 211 212 213 211 215 217 218
224 223 215 224 260 253 248 245 241 230 228 227 222 214 214 213 212 215 214 209 207 208 210 212 213 213 213 211 210 212 215 213 213 211 207 207 210 215 217 221 217 218 220
225 224 226 275 260 251 241 240 243 243 227 221 220 218 215 217 218 217 217 216 216 215 215 215 215 215 214 213 209 209 210 209 209 214 217 220 219 217 220 220 218 223 252
352 339 317 278 260 250 238 235 237 237 232 228 217 214 215 208 211 210 212 210 209 212 212 212 213 212 213 214 216 216 216 218 221 219 219 225 243 248 248 250 250 253 259
338 308 316 275 257 249 237 229 231 229 232 229 225 216 213 211 208 206 206 208 209 210 208 208 212 212 214 217 218 218 216 222 223 243 245 243 246 242 247 250 262 280 311
Wind_Speed
124 121 107 133 130 128 113 126 128 120 121 97 102 81 85 85 91 90 106 96 88 71 84 92 82 71 78 71 63 78 74 67 64 69 62 69 65 65 60 60 54 56 50
140 89 138 88 113 114 106 122 116 121 111 118 108 104 95 93 96 96 104 98 98 78 84 86 87 76 79 80 80 75 68 69 70 68 64 67 62 67 59 59 61 58 54
142 128 128 138 135 135 131 115 125 132 125 117 117 100 117 112 101 105 100 103 83 85 77 78 74 81 80 94 75 80 74 75 66 69 63 65 67 61 61 63 62 59 59
132 103 111 135 127 122 121 132 120 134 131 116 134 121 104 109 123 109 91 105 86 74 92 75 93 104 86 72 90 81 81 78 72 67 66 66 68 68 64 66 64 66 62
143 154 142 152 152 143 136 144 141 134 137 132 117 90 105 120 97 90 99 101 82 87 90 96 95 106 101 85 91 88 86 73 68 71 70 75 72 65 72 70 68 67 67
127 120 136 134 148 148 114 138 139 138 112 132 108 129 132 126 109 107 91 85 96 110 102 101 89 104 97 81 92 82 80 73 72 72 79 69 74 74 66 70 72 70 72
112 111 118 95 93 130 122 109 140 137 134 131 109 114 121 116 107 107 120 91 112 112 106 98 96 103 86 87 79 84 78 77 75 71 71 74 68 72 69 71 73 76 81
107 109 111 114 101 102 90 86 92 96 101 115 126 131 124 114 110 89 91 115 115 112 109 99 97 85 98 95 95 83 84 79 76 73 76 71 71 71 71 75 77 78 77
102 105 112 112 106 106 110 95 101 103 110 112 94 107 107 110 113 109 102 101 108 104 108 101 94 80 98 84 83 88 83 78 76 76 76 77 80 75 77 82 84 86 85
85 90 105 108 113 113 114 109 97 98 107 94 107 103 103 112 116 119 115 112 109 100 86 87 91 84 93 81 85 88 83 84 82 79 81 80 79 80 79 86 86 84 87
83 81 85 94 102 104 108 109 105 100 102 101 97 102 102 106 109 108 109 101 86 99 93 100 102 98 93 88 90 91 85 86 86 84 83 81 88 80 87 84 84 87 88
77 84 81 80 86 95 100 102 105 105 108 108 103 101 100 102 106 106 103 101 96 96 105 105 102 95 99 88 94 87 88 85 86 85 84 85 86 85 87 88 87 86 86
74 74 76 80 79 83 88 91 91 96 100 98 97 96 105 103 101 100 97 102 97 96 96 96 97 96 94 92 90 89 86 86 87 86 87 87 88 89 89 88 93 90 90
72 74 72 71 76 78 79 84 87 88 90 92 95 96 98 98 98 98 101 100 97 98 96 98 96 93 94 93 93 90 88 86 88 89 91 90 91 92 96 94 94 95 95
60 71 72 71 69 69 76 78 80 83 85 88 90 93 95 98 99 96 95 94 94 95 96 95 94 93 92 92 91 90 90 90 89 90 90 90 89 93 98 97 100 102 102
64 62 73 69 67 64 69 65 82 81 82 83 85 86 88 89 91 92 94 96 96 95 94 94 94 92 91 90 89 89 89 87 90 87 88 90 90 92 95 97 99 100 101
66 62 71 70 69 65 65 68 68 66 74 82 85 84 85 87 89 91 92 93 92 91 91 90 89 88 87 88 90 88 84 87 86 87 89 90 91 93 93 94 97 99 102
67 65 65 72 70 67 65 67 71 74 70 71 71 76 84 88 87 87 88 88 87 87 86 86 86 85 86 82 82 88 88 86 89 90 88 91 92 93 95 97 99 99 101
68 65 65 72 72 70 67 67 71 63 69 74 77 74 75 77 79 80 82 83 82 78 79 80 81 78 77 79 83 85 89 87 95 93 93 94 95 97 96 98 99 100 101
68 69 65 66 75 72 71 66 69 72 65 70 71 73 75 77 78 77 76 76 77 79 78 80 82 82 82 84 88 87 90 92 91 96 91 94 96 98 99 101 102 103 106
68 71 67 67 75 76 75 70 69 72 74 73 69 73 74 74 73 74 75 76 79 80 81 80 82 84 84 86 88 89 92 91 92 92 95 97 99 101 103 105 107 109 111
70 72 72 70 75 77 74 76 72 72 74 74 74 72 73 75 77 76 78 76 75 76 79 82 85 85 87 89 90 92 94 96 96 97 99 101 103 105 108 111 113 116 118
74 74 77 76 77 76 74 73 77 76 72 73 75 79 80 82 83 81 81 85 87 86 85 85 87 89 90 92 93 95 94 96 98 101 104 106 108 111 113 116 116 120 123
76 79 83 80 80 78 78 76 75 70 75 78 79 81 83 82 81 80 80 81 83 85 86 87 89 90 91 93 95 97 98 99 102 104 107 110 112 114 116 119 121 124 121
76 74 75 83 82 81 80 80 78 73 75 78 81 82 82 85 84 84 84 86 87 87 88 89 91 93 94 96 97 99 101 102 105 107 109 112 113 113 114 116 118 122 127
74 73 74 86 86 84 83 85 79 75 74 77 79 84 85 86 86 87 88 88 89 90 91 93 94 95 96 97 99 100 103 106 108 107 107 109 112 113 118 121 129 131 128
Wind_Direction
256 260 261 262 262 263 263 265 267 269 270 255 268 254 254 268 258 270 282 279 275 266 285 290 284 285 269 268 268 295 273 284 276 271 289 280 275 271 275 271 272 268 269
254 248 256 252 259 261 261 266 265 269 267 270 271 269 260 271 267 264 277 278 278 267 270 283 289 267 293 287 270 291 292 285 288 287 288 274 276 270 274 270 267 267 266
255 259 261 261 261 262 263 264 265 267 270 270 271 259 273 275 272 277 272 279 264 274 270 273 265 287 266 289 286 281 282 296 274 278 282 274 272 270 273 267 268 265 265
255 251 256 257 260 261 262 265 265 268 264 268 268 269 269 269 276 270 268 275 270 265 280 275 284 286 285 264 291 266 267 293 273 272 282 276 270 274 269 268 267 267 265
245 249 249 255 257 257 258 261 262 264 266 267 269 256 268 271 267 265 274 282 271 273 280 276 279 284 290 281 289 287 292 282 284 273 274 271 268 268 269 266 270 267 266
244 246 248 250 253 255 257 259 260 262 257 262 257 265 268 271 271 276 276 268 278 280 280 280 271 286 287 278 288 268 286 282 286 272 270 270 267 263 267 266 265 267 266
244 244 246 247 246 251 251 250 257 259 260 262 262 266 270 272 274 274 275 271 274 277 278 277 282 284 275 277 271 284 283 273 279 270 275 269 269 264 266 266 268 267 267
241 243 245 245 244 247 245 242 245 244 248 256 262 264 266 268 268 264 255 271 274 274 278 278 274 271 280 281 284 279 284 285 280 272 274 271 269 268 267 267 267 267 267
236 237 241 245 246 245 248 245 247 248 250 252 251 258 261 265 262 266 261 262 273 273 277 273 277 266 278 273 272 282 273 268 272 275 268 267 266 269 267 267 266 268 268
244 240 235 239 244 246 248 248 242 242 249 245 254 253 252 260 267 268 271 270 270 265 262 263 271 268 275 269 275 280 277 279 280 276 265 268 268 266 267 267 265 265 267
244 243 241 238 238 239 243 246 246 243 246 249 246 250 250 248 257 258 264 260 260 267 268 272 273 274 271 272 277 278 274 279 275 270 268 273 266 267 265 263 264 264 267
244 244 243 239 238 238 240 242 245 246 250 252 250 250 249 253 256 259 260 263 263 262 271 272 273 269 275 267 274 269 271 270 272 269 271 273 269 267 266 265 263 262 262
245 243 245 243 240 238 239 238 240 242 244 245 245 246 252 252 253 255 256 260 260 261 264 265 268 269 269 268 268 272 271 272 272 273 271 270 268 268 268 267 265 264 265
248 249 246 243 243 241 239 239 242 243 243 243 245 246 248 250 251 253 256 258 259 262 262 266 266 266 268 269 269 268 268 268 268 270 268 268 268 266 265 268 268 268 267
261 249 248 246 243 243 240 239 239 240 240 241 243 244 246 250 252 253 254 255 258 260 261 262 263 264 264 266 266 268 269 267 268 267 266 267 267 266 266 266 266 267 268
260 255 248 248 245 241 239 246 240 241 241 242 243 243 244 246 249 251 253 255 257 258 259 260 262 261 262 264 266 268 266 266 268 267 267 267 268 268 267 268 269 270 269
260 263 246 248 246 242 238 236 240 243 242 242 244 245 245 246 247 249 251 252 254 255 257 260 261 262 263 264 264 263 263 265 266 267 267 268 269 269 269 269 270 269 269
257 260 255 246 245 244 238 235 235 236 239 240 240 241 243 245 247 249 250 253 254 255 257 259 260 260 261 260 261 264 264 264 266 268 268 268 269 270 271 271 271 272 272
255 257 260 243 246 244 240 234 234 237 239 240 241 242 243 244 246 248 250 252 254 256 256 257 258 259 259 260 261 261 262 263 267 268 268 268 269 270 271 271 274 274 274
253 256 257 260 240 242 241 236 232 233 235 237 239 241 242 244 246 248 250 252 253 254 255 256 257 258 259 261 262 264 265 266 268 268 271 271 272 273 274 274 275 275 275
252 254 255 258 236 241 242 238 233 232 233 235 235 238 241 243 246 248 250 251 253 254 255 257 258 259 260 261 262 265 266 268 269 270 271 272 274 275 276 276 277 277 277
250 251 254 255 235 236 236 240 236 233 235 235 237 238 239 242 245 246 249 250 252 253 254 256 258 260 261 262 265 266 268 269 271 272 273 274 276 276 277 277 278 278 279
248 249 254 254 234 230 234 236 236 235 234 235 236 239 241 243 246 246 248 251 253 255 256 257 258 260 262 264 265 267 268 271 273 274 276 278 279 278 279 279 281 281 282
245 246 249 224 227 226 231 234 235 231 234 235 237 238 242 244 246 248 249 251 253 255 257 259 261 263 265 266 268 271 272 273 275 276 276 276 278 280 282 282 282 282 283
214 211 213 215 220 222 229 233 235 234 231 233 239 241 243 247 249 252 253 255 256 258 260 262 263 265 267 268 271 273 275 276 277 278 279 280 280 281 283 286 287 289 290
207 209 205 210 216 220 225 232 235 236 236 235 236 241 244 247 250 253 255 257 259 261 263 265 266 268 270 271 272 274 276 277 278 279 282 285 288 290 291 292 293 293 294